This demonstration page uses our WeatherBlox Daily Observations layout. Learn more.

Left ArrowRight Arrow

Hourly Observations for October 9, 2016

Temp ( °F °C ) Dew Point ( °F °C ) Humidity (%) Winds ( mph kmh ) Pressure ( in mb ) Visibility ( mi km ) Precip ( " mm )
12:53 am 00:53 Cloudy 62 16.7 59 15 90 90 Calm 30.18 1022 10 16 0.00 0.00
1:53 am 01:53 Cloudy 62 16.7 59 15 90 90 Calm 30.19 1022 10 16 0.00 0.00
2:53 am 02:53 Cloudy 62 16.7 59 15 90 90 SE 3 6 30.20 1023 10 16 0.00 0.00
3:25 am 03:25 Partly Cloudy 61 16.1 59 15 93 93 ESE 5 7 30.18 1022 10 16 0.00 0.00
3:43 am 03:43 Mostly Cloudy 61 16.1 59 15 93 93 Calm 30.18 1022 10 16 0.00 0.00
3:53 am 03:53 Cloudy 62 16.7 60 15.6 93 93 Calm 30.19 1023 10 16 0.00 0.00
4:53 am 04:53 Mostly Cloudy 62 16.7 60 15.6 93 93 ENE 5 7 30.18 1022 10 16 0.00 0.00
5:15 am 05:15 Mostly Cloudy 61 16.1 60 15.6 97 97 ENE 6 9 30.15 1021 10 16 0.00 0.00
5:53 am 05:53 Mostly Cloudy 61 16.1 59 15 93 93 ENE 7 11 30.17 1022 10 16 0.00 0.00
6:46 am 06:46 Cloudy 63 17 61 16 94 94 E 7 11 30.18 1022 10 16 0.00 0.00
6:53 am 06:53 Cloudy 62 16.7 60 15.6 93 93 ENE 6 9 30.18 1022 10 16 0.00 0.00
7:05 am 07:05 Cloudy 62 16.7 59 15 90 90 E 6 9 30.18 1022 10 16 0.00 0.00
7:53 am 07:53 Cloudy 62 16.7 59 15 90 90 E 6 9 30.19 1022 10 16 0.00 0.00
8:53 am 08:53 Cloudy 62 16.7 59 15 90 90 ENE 3 6 30.21 1023 10 16 0.00 0.00
9:10 am 09:10 Cloudy 63 17 59 15 88 88 E 3 6 30.21 1023 10 16 0.00 0.00
9:53 am 09:53 Mostly Cloudy 65 18.3 59 15 81 81 E 8 13 30.20 1023 10 16 0.00 0.00
10:24 am 10:24 Mostly Cloudy 66 19 61 16 83 83 ESE 8 13 30.18 1022 10 16 0.00 0.00
10:53 am 10:53 Mostly Cloudy 68 20 60 15.6 76 76 SE 7 11 30.21 1023 10 16 0.00 0.00
11:07 am 11:07 Mostly Cloudy 67 19.4 60 15.6 79 79 SE 8 13 30.18 1022 10 16 0.00 0.00
11:53 am 11:53 Cloudy 68 20 61 16.1 78 78 SE 12 19 30.20 1023 10 16 0.00 0.00
12:53 pm 12:53 Cloudy 69 20.6 61 16.1 76 76 SSE 14 22 30.18 1022 10 16 0.00 0.00
1:53 pm 13:53 Partly Cloudy 72 22.2 60 15.6 66 66 SSE 10 17 30.16 1021 10 16 0.00 0.00
2:53 pm 14:53 Mostly Cloudy 74 23.3 60 15.6 62 62 SSE 12 19 30.12 1020 10 16 0.00 0.00
3:53 pm 15:53 Mostly Cloudy 76 24.4 60 15.6 58 58 ESE 10 17 30.09 1019 10 16 0.00 0.00
4:53 pm 16:53 Cloudy 76 24.4 59 15 56 56 SSE 12 19 30.09 1019 10 16 0.00 0.00
5:53 pm 17:53 Mostly Cloudy 77 25 58 14.4 52 52 SSE 13 20 30.07 1018 10 16 0.00 0.00
6:53 pm 18:53 Sunny 74 23.3 58 14.4 57 57 SSE 10 17 30.08 1019 10 16 0.00 0.00
7:53 pm 19:53 Clear 70 21.1 58 14.4 66 66 SE 8 13 30.09 1019 10 16 0.00 0.00
8:53 pm 20:53 Partly Cloudy 69 20.6 58 14.4 68 68 SE 9 15 30.09 1019 10 16 0.00 0.00
9:53 pm 21:53 Mostly Cloudy 68 20 59 15 73 73 SE 9 15 30.11 1020 10 16 0.00 0.00
10:53 pm 22:53 Clear 67 19.4 59 15 76 76 SSE 13 20 30.10 1019 10 16 0.00 0.00
11:53 pm 23:53 Mostly Cloudy 67 19.4 59 15 76 76 SSE 12 19 30.10 1019 10 16 0.00 0.00

Powered by AerisWeather